sat.trackr.live / text

‹ back to catalog

STARLINK-37091

NORAD 68191 · 2026-050AA

PAYLOAD ACTIVE UNKNOWN

§ Identity

Operator
Country
US
Launch date
2026-03-14
Launch site
AFETR
Launch vehicle
Mass (kg)
RCS (m²)

Purposes: comms

External: N2YO · Heavens-Above · Gunter

§ Orbital elements

Epoch: 2026-05-25T01:27:11.546784Z

Period
93.85 min
Inclination
53.1578°
Eccentricity
0.0001027
Mean motion
15.34417560 rev/d
Perigee alt
461.9 km
Apogee alt
463.4 km
Semi-major
6,840.8 km
B*
8.8806e-4
RAAN
271.4539°
Arg perigee
87.5326°
Mean anomaly
272.5794°
Rev number
1,238

§ Raw data

STARLINK-370911 68191U 26050AA  26145.06055031  .00029764  00000+0  88806-3 0  99962 68191  53.1578 271.4539 0001027  87.5326 272.5794 15.34417560 12384

JSON: /api/v1/satellites/68191 · /tle

For live sub-satellite position, see the globe view (requires WebGL).

§ Visibility from observer

Set your observer location to see the next 7 days of passes ≥ 10°. The values pass through the URL so the page stays shareable.

No JS? Fill the form by hand. The geolocation button needs JavaScript.